STARLINK-31908, 59901

Orbit data source: Space-Track

STARLINK-31908, 59901 is a payload satellite owned by SpaceX/Seattle (US) in LEO that was launched on Tue, 28 May 2024 UTC via an FALCON 9 launch vehicle from the Air Force Eastern Test Range (AFETR). Payload-class satellites include a variety of spacecraft equipped with specific instruments for various scientific and technological missions. These include communications satellites like Starlink; space stations such as the ISS; scientific satellites like the Hubble; Earth observation satellites from companies like Planet Labs, Umbra, and HawkEye 360; GPS; miniature CubeSats for education and research; and military/defense satellites.

Loading next visibility...
Identifier
59901, 2024-100S
Orbit
LEO
Country
Flag of USUS
Related business
Manufacturer
SpaceX/Seattle
Mission
Operational Commercial Communications
Bus & Motor
STARLINK V2M, Unknown motor
Mass
730 kg wet, ~700 kg dry
Launch date (UTC)
2024-05-28 (2 years ago)
Launch vehicle
FALCON 9
Launch site
Air Force Eastern Test Range (AFETR)
Object type
Payload
Rocket body
Debris
Shape & HBR
Box + 2 Pan, 17.7 m
Radar Cross Section
33.884 m², Large (>1 m²)

Expand to show TLE details & history
Last TLE update: 2 days ago

TLE from 2 days ago
0 STARLINK-31908
1 59901U 24100S   26171.31576876  .00012420  00000-0  46095-3 0  9997
2 59901  43.0019 258.7774 0000864 268.0387  92.0366 15.27518033116925
Epoch: 2026-06-20T07:34Z
TLE epoch observation values (Epoch: 2026-06-20T07:34:42.420Z)
Latitude
-0.00002°
Longitude
-123.43151°
Altitude
483.031 km
Speed
7.626 km/s
True Right ascension
17h 15m 06s
True Declination
0° 00' 00"
Sunlit
Object was in full shadow at epoch
Visualization orbit readout
Latitude
Unknown
Longitude
Unknown
Altitude
Unknown
Speed
Unknown
Apparent Right ascension
Unknown
Apparent Declination
Unknown
Sunlit
N/A
Visualization observer readout
Local Sidereal Time
21:39:07
Azimuth
Unknown
Elevation
Unknown
Doppler factor
Unknown
Orbital elements
Apogee altitude
485.772 km
Perigee altitude
484.586 km
Semi-major axis
6,863.316 km
Eccentricity
0.00009
Inclination
43.0019°
RAAN
258.7774°
Arg. of periapsis
268.0387°
True anomaly
92.04649°
Mean anomaly
92.0366°
Eccentric anomaly
92.04155°
Mean motion
3.81718 °/min
Orbital period
94.31 mins
BSTAR
0.00046095
Loading maneuver chart data...
Computing Atmospheric mass density...
Loading historical data...
Loading historical data...
Loading historical data...
Loading historical data...
Loading historical data...
Loading historical data...
Loading historical data...

Documentation

Showing up to 5 results
|